Regional Weather Roundup
Issued by NWS Kansas City/Pleasant Hill, MO

Home | Current Version | Previous Version | Graphics & Text | Print | Product List | Glossary Off
Versions: 1 2 3 4 5 6 7 8 9 10 11 12 13 14 15 16 17 18 19 20 21 22 23 24 25 26 27 28 29 30 31 32 33 34 35 36 37 38 39 40 41 42 43 44 45 46 47 48 49 50

178
ASUS43 KEAX 251810
RWREAX

WEATHER ROUNDUP FOR EASTERN KANSAS AND NORTHWEST MISSOURI
NATIONAL WEATHER SERVICE KANSAS CITY/PLEASANT HILL MO
100 PM CDT THU MAY 25 2017

KSZ040-057-103>105-MOZ028-029-037-043-251900-
...KANSAS CITY METROPOLITAN AREA...

CITY           SKY/WX    TMP DP  RH WIND       PRES   REMARKS
K.C. INTL      MOSUNNY   72  51  47 SE12G20   29.67F
6HR MIN TEMP:  51; 6HR MAX TEMP:  72;

K.C. DOWNTOWN  SUNNY     73  51  46 S10       29.67F
6HR MIN TEMP:  52; 6HR MAX TEMP:  73;

LEES SUMMIT    SUNNY     71  51  49 SE10G18   29.69F
6HR MIN TEMP:  52; 6HR MAX TEMP:  71;

OLATHE - IXD   SUNNY     72  50  45 SE16G24   29.67F
6HR MIN TEMP:  48; 6HR MAX TEMP:  72;

OLATHE - OJC   SUNNY     70  52  52 S13       29.68F
6HR MIN TEMP:  49; 6HR MAX TEMP:  70;

LAWRENCE       SUNNY     74  52  46 SE16      29.66F

$$

MOZ001>008-011>017-020>025-030>033-038>040-044>046-053-054-251900-
...NORTHERN AND CENTRAL MISSOURI...

CITY           SKY/WX    TMP DP  RH WIND       PRES   REMARKS
ST. JOSEPH     SUNNY     72  51  47 S14G22    29.66F
6HR MIN TEMP:  47; 6HR MAX TEMP:  72;

MOSBY          CLEAR     70  46  43 S8        29.68F
WARRENSBURG    SUNNY     70  50  49 SE7       29.71F
WHITEMAN AFB   MOSUNNY   70  51  51 S9        29.71F
6HR MIN TEMP:  49; 6HR MAX TEMP:  70;

CLINTON        SUNNY     72  48  43 SW9G16    29.73F
SEDALIA        SUNNY     71  51  49 SW8       29.73F
6HR MIN TEMP:  51; 6HR MAX TEMP:  71;

WARSAW         NOT AVBL
CHILLICOTHE      N/A     70  50  49 S8        29.71F
6HR MIN TEMP:  46; 6HR MAX TEMP:  70;

KIRKSVILLE     MOSUNNY   68  50  52 MISG      29.73F
6HR MIN TEMP:  47; 6HR MAX TEMP:  69;


$$

MOZ041-047>049-056>058-063>065-088>090-097-251900-
...EASTERN AND SOUTHERN MISSOURI...

CITY           SKY/WX    TMP DP  RH WIND       PRES   REMARKS
ST. LOUIS INTL MOSUNNY   71  51  49 N8        29.73S
6HR MIN TEMP:  57; 6HR MAX TEMP:  74;

SPIRIT OF STL  MOSUNNY   72  54  53 SW12      29.72S
COLUMBIA       MOSUNNY   67  50  54 SW6       29.74F
JEFFERSON CITY MOSUNNY   71  50  47 VRB7      29.73F
ROLLA          MOSUNNY   68  51  54 W12       29.75S
SPRINGFIELD    SUNNY     71  52  50 S13       29.74F
BRANSON        SUNNY     72  50  46 S7        29.77F
JOPLIN         SUNNY     75  54  47 S10       29.70F
WEST PLAINS    SUNNY     69  51  52 SW9G16    29.79F

$$

IAZ060-094-KSZ022-034>040-054-083-096-NEZ052-066-093-251900-
...KANSAS...SOUTHEAST NEBRASKA AND IOWA...

CITY           SKY/WX    TMP DP  RH WIND       PRES   REMARKS
TOPEKA         SUNNY     74  52  46 S17G24    29.63F
6HR MIN TEMP:  49; 6HR MAX TEMP:  74;

MANHATTAN      SUNNY     75  50  41 S21       29.58F
EMPORIA        SUNNY     73  51  46 S24G30    29.62F
CHANUTE        SUNNY     74  52  46 SE15G22   29.66F
WICHITA        MOSUNNY   72  52  49 SE24G35   29.54F
OMAHA          MOSUNNY   71  49  45 S18       29.61F
LINCOLN        SUNNY     75  49  39 S21G28    29.58F
FALLS CITY     SUNNY     71  51  49 S12G24    29.63S
LAMONI         SUNNY     68  50  52 SE9       29.69F
DES MOINES     MOSUNNY   69  50  50 S9        29.68F

$$





USA.gov is the U.S. government's official web portal to all federal, state and local government web resources and services.